"Period start","avg(HW err(1)/warn(2) (#))","avg(Visibility (m))","avg(Weather code (#))","avg(Precip intensity (mm/h))","min(HW err(1)/warn(2) (#))","max(HW err(1)/warn(2) (#))","std(HW err(1)/warn(2) (#))","med(HW err(1)/warn(2) (#))","min(Visibility (m))","max(Visibility (m))","std(Visibility (m))","med(Visibility (m))","min(Weather code (#))","max(Weather code (#))","std(Weather code (#))","med(Weather code (#))","min(Precip intensity (mm/h))","max(Precip intensity (mm/h))","std(Precip intensity (mm/h))","med(Precip intensity (mm/h))"
2014-05-02 00:00:00,2,41924,0,0.00,2,2,0,2,29240,50000,6799,44091,0,0,0,0,0.00,0.00,0.00,0.00
2014-05-02 00:10:00,2,35051,0,0.00,2,2,0,2,25392,50000,7805,32634,0,0,0,0,0.00,0.00,0.00,0.00
2014-05-02 00:20:00,2,32678,0,0.00,2,2,0,2,25508,40675,5230,31775,0,0,0,0,0.00,0.00,0.00,0.00
2014-05-02 00:30:00,2,36587,0,0.00,2,2,0,2,21443,43762,7004,37918,0,0,0,0,0.00,0.00,0.00,0.00
2014-05-02 00:40:00,2,34990,0,0.00,2,2,0,2,16125,50000,12180,39588,0,0,0,0,0.00,0.00,0.00,0.00
2014-05-02 00:50:00,2,30761,0,0.00,2,2,0,2,21038,46645,7303,28014,0,0,0,0,0.00,0.00,0.00,0.00
2014-05-02 01:00:00,2,23699,0,0.00,2,2,0,2,15593,36355,6822,21617,0,0,0,0,0.00,0.00,0.00,0.00
2014-05-02 01:10:00,2,24288,58,0.06,2,2,0,2,15195,40520,7463,24007,0,71,23,71,0.00,0.15,0.05,0.05
2014-05-02 01:20:00,2,27021,63,0.03,2,2,0,2,19605,45126,7196,25541,41,77,14,71,0.00,0.05,0.03,0.03
2014-05-02 01:30:00,2,19461,46,0.02,2,2,0,2,14729,24914,3269,19656,0,77,38,77,0.00,0.10,0.03,0.00
2014-05-02 01:40:00,2,27246,0,0.00,2,2,0,2,15671,40798,6472,26440,0,0,0,0,0.00,0.00,0.00,0.00
2014-05-02 01:50:00,2,33994,0,0.00,2,2,0,2,25107,50000,7199,34148,0,0,0,0,0.00,0.00,0.00,0.00
2014-05-02 02:00:00,2,32871,0,0.00,2,2,0,2,25813,38398,3484,33522,0,0,0,0,0.00,0.00,0.00,0.00
2014-05-02 02:10:00,2,35222,0,0.00,2,2,0,2,25775,45708,8149,31744,0,0,0,0,0.00,0.00,0.00,0.00
2014-05-02 02:20:00,2,32975,0,0.00,2,2,0,2,21615,43358,7174,33411,0,0,0,0,0.00,0.00,0.00,0.00
2014-05-02 02:30:00,2,31676,0,0.00,2,2,0,2,19308,50000,8178,30184,0,0,0,0,0.00,0.00,0.00,0.00
2014-05-02 02:40:00,2,30579,0,0.00,2,2,0,2,18494,45477,7059,30374,0,0,0,0,0.00,0.00,0.00,0.00
2014-05-02 02:50:00,2,32577,0,0.00,2,2,0,2,19560,50000,8746,33213,0,0,0,0,0.00,0.00,0.00,0.00
2014-05-02 03:00:00,2,30016,0,0.00,2,2,0,2,14898,40096,7534,31280,0,0,0,0,0.00,0.00,0.00,0.00
2014-05-02 03:10:00,2,12702,62,0.24,2,2,0,2,8822,19586,3071,12299,40,71,14,71,0.00,0.70,0.19,0.20
2014-05-02 03:20:00,2,15944,71,0.20,2,2,0,2,8447,32863,7797,13351,71,71,0,71,0.00,0.70,0.20,0.12
2014-05-02 03:30:00,2,33416,76,0.03,2,2,0,2,19066,50000,9877,32692,71,77,2,77,0.00,0.05,0.02,0.05
2014-05-02 03:40:00,2,27872,15,0.01,2,2,0,2,17418,46250,8596,25754,0,77,31,0,0.00,0.05,0.02,0.00
2014-05-02 03:50:00,2,30764,0,0.00,2,2,0,2,21191,42743,6924,27050,0,0,0,0,0.00,0.00,0.00,0.00
2014-05-02 04:00:00,2,36117,0,0.00,2,2,0,2,22162,43973,5733,36938,0,0,0,0,0.00,0.00,0.00,0.00
2014-05-02 04:10:00,2,34292,0,0.00,2,2,0,2,21401,42239,6152,35500,0,0,0,0,0.00,0.00,0.00,0.00
2014-05-02 04:20:00,2,26827,0,0.00,2,2,0,2,13209,42682,9791,24402,0,0,0,0,0.00,0.00,0.00,0.00
2014-05-02 04:30:00,2,24458,0,0.00,2,2,0,2,16523,35564,6034,23592,0,0,0,0,0.00,0.00,0.00,0.00
2014-05-02 04:40:00,2,30412,0,0.00,2,2,0,2,13249,45795,10971,29300,0,0,0,0,0.00,0.00,0.00,0.00
2014-05-02 04:50:00,2,22749,0,0.00,2,2,0,2,14107,34417,6179,21762,0,0,0,0,0.00,0.00,0.00,0.00
2014-05-02 05:00:00,2,28258,0,0.00,2,2,0,2,20419,41164,6378,27987,0,0,0,0,0.00,0.00,0.00,0.00
2014-05-02 05:10:00,2,25082,0,0.00,2,2,0,2,20266,32823,3982,24372,0,0,0,0,0.00,0.00,0.00,0.00
2014-05-02 05:20:00,2,31042,0,0.00,2,2,0,2,21324,50000,7713,30869,0,0,0,0,0.00,0.00,0.00,0.00
2014-05-02 05:30:00,2,31456,0,0.00,2,2,0,2,16522,50000,10120,32466,0,0,0,0,0.00,0.00,0.00,0.00
2014-05-02 05:40:00,2,23219,0,0.00,2,2,0,2,16818,33008,5574,20922,0,0,0,0,0.00,0.00,0.00,0.00
2014-05-02 05:50:00,2,29402,0,0.00,2,2,0,2,22282,47826,8468,26630,0,0,0,0,0.00,0.00,0.00,0.00
2014-05-02 06:00:00,2,30226,0,0.00,2,2,0,2,22234,41607,7337,27624,0,0,0,0,0.00,0.00,0.00,0.00
2014-05-02 06:10:00,2,29472,0,0.00,2,2,0,2,21480,49562,7781,28450,0,0,0,0,0.00,0.00,0.00,0.00
2014-05-02 06:20:00,2,28648,0,0.00,2,2,0,2,17576,50000,9650,26808,0,0,0,0,0.00,0.00,0.00,0.00
2014-05-02 06:30:00,2,26250,0,0.00,2,2,0,2,15955,39172,7141,24928,0,0,0,0,0.00,0.00,0.00,0.00
2014-05-02 06:40:00,2,26626,0,0.00,2,2,0,2,19118,32776,4817,27842,0,0,0,0,0.00,0.00,0.00,0.00
2014-05-02 06:50:00,2,30798,0,0.00,2,2,0,2,18612,44344,8631,29182,0,0,0,0,0.00,0.00,0.00,0.00
2014-05-02 07:00:00,2,35654,0,0.00,2,2,0,2,25504,50000,8224,34680,0,0,0,0,0.00,0.00,0.00,0.00
2014-05-02 07:10:00,2,34137,0,0.00,2,2,0,2,19964,42713,7010,34122,0,0,0,0,0.00,0.00,0.00,0.00
2014-05-02 07:20:00,2,41419,0,0.00,2,2,0,2,29778,50000,8227,44498,0,0,0,0,0.00,0.00,0.00,0.00
2014-05-02 07:30:00,2,31830,0,0.00,2,2,0,2,19658,49691,9031,29129,0,0,0,0,0.00,0.00,0.00,0.00
2014-05-02 07:40:00,2,38818,0,0.00,2,2,0,2,23272,50000,9548,40942,0,0,0,0,0.00,0.00,0.00,0.00
2014-05-02 07:50:00,2,32186,0,0.00,2,2,0,2,19264,40177,6165,33052,0,0,0,0,0.00,0.00,0.00,0.00
2014-05-02 08:00:00,2,36115,0,0.00,2,2,0,2,23989,43949,6325,36674,0,0,0,0,0.00,0.00,0.00,0.00
2014-05-02 08:10:00,2,40863,0,0.00,2,2,0,2,31858,50000,5376,41379,0,0,0,0,0.00,0.00,0.00,0.00
2014-05-02 08:20:00,2,37919,0,0.00,2,2,0,2,21366,50000,8874,38396,0,0,0,0,0.00,0.00,0.00,0.00
2014-05-02 08:30:00,2,41114,0,0.00,2,2,0,2,24906,50000,7864,42448,0,0,0,0,0.00,0.00,0.00,0.00
2014-05-02 08:40:00,2,43231,0,0.00,2,2,0,2,36080,50000,4694,43100,0,0,0,0,0.00,0.00,0.00,0.00
2014-05-02 08:50:00,2,41577,0,0.00,2,2,0,2,33549,46685,4289,41504,0,0,0,0,0.00,0.00,0.00,0.00
2014-05-02 09:00:00,2,43436,0,0.00,2,2,0,2,34222,50000,5564,42945,0,0,0,0,0.00,0.00,0.00,0.00
2014-05-02 09:10:00,2,44971,0,0.00,2,2,0,2,35422,50000,3902,45658,0,0,0,0,0.00,0.00,0.00,0.00
2014-05-02 09:20:00,2,48687,0,0.00,2,2,0,2,43960,50000,1833,49616,0,0,0,0,0.00,0.00,0.00,0.00
2014-05-02 09:30:00,2,49181,0,0.00,2,2,0,2,44384,50000,1660,49963,0,0,0,0,0.00,0.00,0.00,0.00
2014-05-02 09:40:00,2,47736,0,0.00,2,2,0,2,42038,50000,2633,48471,0,0,0,0,0.00,0.00,0.00,0.00
2014-05-02 09:50:00,2,44551,0,0.00,2,2,0,2,38723,50000,4311,42878,0,0,0,0,0.00,0.00,0.00,0.00
2014-05-02 10:00:00,2,44571,0,0.00,2,2,0,2,39611,50000,3339,44630,0,0,0,0,0.00,0.00,0.00,0.00
2014-05-02 10:10:00,2,45097,0,0.00,2,2,0,2,39969,50000,3729,44181,0,0,0,0,0.00,0.00,0.00,0.00
2014-05-02 10:20:00,2,46332,0,0.00,2,2,0,2,40326,50000,2892,46654,0,0,0,0,0.00,0.00,0.00,0.00
2014-05-02 10:30:00,2,46044,0,0.00,2,2,0,2,39712,50000,4121,47844,0,0,0,0,0.00,0.00,0.00,0.00
2014-05-02 10:40:00,2,49666,0,0.00,2,2,0,2,48283,50000,590,50000,0,0,0,0,0.00,0.00,0.00,0.00
2014-05-02 10:50:00,2,47768,0,0.00,2,2,0,2,40239,50000,3192,49998,0,0,0,0,0.00,0.00,0.00,0.00
2014-05-02 11:00:00,2,46922,0,0.00,2,2,0,2,37333,50000,4560,49184,0,0,0,0,0.00,0.00,0.00,0.00
2014-05-02 11:10:00,2,46706,0,0.00,2,2,0,2,37756,50000,4829,49684,0,0,0,0,0.00,0.00,0.00,0.00
2014-05-02 11:20:00,2,47810,0,0.00,2,2,0,2,41415,50000,2986,49488,0,0,0,0,0.00,0.00,0.00,0.00
2014-05-02 11:30:00,2,48706,0,0.00,2,2,0,2,44711,50000,1743,49769,0,0,0,0,0.00,0.00,0.00,0.00
2014-05-02 11:40:00,2,48680,0,0.00,2,2,0,2,45034,50000,1627,49544,0,0,0,0,0.00,0.00,0.00,0.00
2014-05-02 11:50:00,2,47693,0,0.00,2,2,0,2,41640,50000,2586,48482,0,0,0,0,0.00,0.00,0.00,0.00
2014-05-02 12:00:00,2,49157,0,0.00,2,2,0,2,45215,50000,1520,50000,0,0,0,0,0.00,0.00,0.00,0.00
2014-05-02 12:10:00,2,47140,0,0.00,2,2,0,2,42875,50000,2642,47838,0,0,0,0,0.00,0.00,0.00,0.00
2014-05-02 12:20:00,2,47876,0,0.00,2,2,0,2,43661,50000,1953,48348,0,0,0,0,0.00,0.00,0.00,0.00
2014-05-02 12:30:00,2,49215,0,0.00,2,2,0,2,45609,50000,1415,50000,0,0,0,0,0.00,0.00,0.00,0.00
2014-05-02 12:40:00,2,49183,0,0.00,2,2,0,2,44806,50000,1630,50000,0,0,0,0,0.00,0.00,0.00,0.00
2014-05-02 12:50:00,2,48080,0,0.00,2,2,0,2,42883,50000,2767,49896,0,0,0,0,0.00,0.00,0.00,0.00
2014-05-02 13:00:00,2,47323,0,0.00,2,2,0,2,38217,50000,3509,48728,0,0,0,0,0.00,0.00,0.00,0.00
2014-05-02 13:10:00,2,47735,0,0.00,2,2,0,2,44024,50000,2104,47476,0,0,0,0,0.00,0.00,0.00,0.00
2014-05-02 13:20:00,2,48446,0,0.00,2,2,0,2,44135,50000,1756,49404,0,0,0,0,0.00,0.00,0.00,0.00
2014-05-02 13:30:00,2,46902,0,0.00,2,2,0,2,41851,50000,2737,47826,0,0,0,0,0.00,0.00,0.00,0.00
2014-05-02 13:40:00,2,47139,0,0.00,2,2,0,2,41617,50000,2407,47078,0,0,0,0,0.00,0.00,0.00,0.00
2014-05-02 13:50:00,2,49502,0,0.00,2,2,0,2,48141,50000,602,49714,0,0,0,0,0.00,0.00,0.00,0.00
2014-05-02 14:00:00,2,47088,0,0.00,2,2,0,2,41872,50000,2958,48153,0,0,0,0,0.00,0.00,0.00,0.00
2014-05-02 14:10:00,2,49130,0,0.00,2,2,0,2,45592,50000,1409,50000,0,0,0,0,0.00,0.00,0.00,0.00
2014-05-02 14:20:00,2,49719,0,0.00,2,2,0,2,48064,50000,610,50000,0,0,0,0,0.00,0.00,0.00,0.00
2014-05-02 14:30:00,2,49204,0,0.00,2,2,0,2,46890,50000,1066,49836,0,0,0,0,0.00,0.00,0.00,0.00
2014-05-02 14:40:00,2,49976,0,0.00,2,2,0,2,49755,50000,74,50000,0,0,0,0,0.00,0.00,0.00,0.00
2014-05-02 14:50:00,2,50000,0,0.00,2,2,0,2,50000,50000,0,50000,0,0,0,0,0.00,0.00,0.00,0.00
2014-05-02 15:00:00,2,50000,0,0.00,2,2,0,2,50000,50000,0,50000,0,0,0,0,0.00,0.00,0.00,0.00
2014-05-02 15:10:00,2,49737,0,0.00,2,2,0,2,47877,50000,638,50000,0,0,0,0,0.00,0.00,0.00,0.00
2014-05-02 15:20:00,2,49718,0,0.00,2,2,0,2,48128,50000,600,50000,0,0,0,0,0.00,0.00,0.00,0.00
2014-05-02 15:30:00,2,49864,0,0.00,2,2,0,2,48644,50000,407,50000,0,0,0,0,0.00,0.00,0.00,0.00
2014-05-02 15:40:00,2,49800,0,0.00,2,2,0,2,48982,50000,368,50000,0,0,0,0,0.00,0.00,0.00,0.00
2014-05-02 15:50:00,2,49861,0,0.00,2,2,0,2,49108,50000,292,50000,0,0,0,0,0.00,0.00,0.00,0.00
2014-05-02 16:00:00,2,50000,0,0.00,2,2,0,2,50000,50000,0,50000,0,0,0,0,0.00,0.00,0.00,0.00
2014-05-02 16:10:00,2,50000,0,0.00,2,2,0,2,50000,50000,0,50000,0,0,0,0,0.00,0.00,0.00,0.00
2014-05-02 16:20:00,2,50000,0,0.00,2,2,0,2,50000,50000,0,50000,0,0,0,0,0.00,0.00,0.00,0.00
2014-05-02 16:30:00,2,48601,0,0.00,2,2,0,2,42025,50000,2406,49970,0,0,0,0,0.00,0.00,0.00,0.00
2014-05-02 16:40:00,2,34562,0,0.00,2,2,0,2,26915,44058,5117,34569,0,0,0,0,0.00,0.00,0.00,0.00
2014-05-02 16:50:00,2,21070,73,0.03,2,2,0,2,11895,26753,4121,22496,71,77,3,71,0.00,0.10,0.04,0.00
2014-05-02 17:00:00,2,18940,77,0.03,2,2,0,2,13042,33406,5671,17508,77,78,0,77,0.00,0.10,0.03,0.00
2014-05-02 17:10:00,2,18904,75,0.07,2,2,0,2,10464,32879,6605,17394,71,78,3,78,0.00,0.25,0.10,0.03
2014-05-02 17:20:00,2,12262,71,0.35,2,2,0,2,4879,28836,7547,10400,71,71,0,71,0.00,0.80,0.28,0.38
2014-05-02 17:30:00,2,44542,7,0.00,2,2,0,2,32846,50000,6043,47491,0,71,21,0,0.00,0.00,0.00,0.00
2014-05-02 17:40:00,2,49382,0,0.00,2,2,0,2,44640,50000,1599,50000,0,0,0,0,0.00,0.00,0.00,0.00
2014-05-02 17:50:00,2,37503,14,0.00,2,2,0,2,11501,50000,14700,46705,0,71,28,0,0.00,0.00,0.00,0.00
2014-05-02 18:00:00,2,35308,78,0.00,2,2,0,2,21985,45059,7650,38849,78,78,0,78,0.00,0.00,0.00,0.00
2014-05-02 18:10:00,2,32511,45,0.00,2,2,0,2,20820,40247,5481,33977,0,78,37,71,0.00,0.00,0.00,0.00
2014-05-02 18:20:00,2,37822,23,0.00,2,2,0,2,33816,44138,3648,36414,0,78,36,0,0.00,0.00,0.00,0.00
2014-05-02 18:30:00,2,46027,0,0.00,2,2,0,2,37337,50000,4701,48084,0,0,0,0,0.00,0.00,0.00,0.00
2014-05-02 18:40:00,2,40612,0,0.00,2,2,0,2,32650,46980,5120,41177,0,0,0,0,0.00,0.00,0.00,0.00
2014-05-02 18:50:00,2,18197,71,0.11,2,2,0,2,11031,25927,4444,17418,71,71,0,71,0.00,0.30,0.08,0.10
2014-05-02 19:00:00,2,20563,71,0.07,2,2,0,2,10135,35920,7031,19392,71,71,0,71,0.00,0.35,0.10,0.05
2014-05-02 19:10:00,2,17480,71,0.04,2,2,0,2,11397,26024,4713,16423,71,71,0,71,0.00,0.15,0.05,0.05
2014-05-02 19:20:00,2,11702,71,0.16,2,2,0,2,7361,19363,3251,11054,71,71,0,71,0.00,0.50,0.13,0.15
2014-05-02 19:30:00,2,11215,71,0.15,2,2,0,2,6607,18058,3360,10932,71,71,0,71,0.00,0.55,0.18,0.08
2014-05-02 19:40:00,2,14217,71,0.08,2,2,0,2,10282,20121,2692,13365,71,71,0,71,0.00,0.30,0.11,0.05
2014-05-02 19:50:00,2,15404,71,0.11,2,2,0,2,8862,21842,4203,15070,71,71,0,71,0.00,0.45,0.14,0.05
2014-05-02 20:00:00,2,12974,71,0.24,2,2,0,2,10461,16458,1619,12904,71,71,0,71,0.00,1.25,0.35,0.12
2014-05-02 20:10:00,2,21365,64,0.04,2,2,0,2,12872,27298,4316,22130,0,71,21,71,0.00,0.20,0.07,0.00
2014-05-02 20:20:00,2,41076,0,0.00,2,2,0,2,31654,50000,5725,41552,0,0,0,0,0.00,0.00,0.00,0.00
2014-05-02 20:30:00,2,41299,0,0.00,2,2,0,2,34459,47488,4817,41496,0,0,0,0,0.00,0.00,0.00,0.00
2014-05-02 20:40:00,2,42771,0,0.00,2,2,0,2,36997,50000,4503,42732,0,0,0,0,0.00,0.00,0.00,0.00
2014-05-02 20:50:00,2,45783,0,0.00,2,2,0,2,39481,50000,3587,46510,0,0,0,0,0.00,0.00,0.00,0.00
2014-05-02 21:00:00,2,41651,0,0.00,2,2,0,2,31414,46138,4440,43532,0,0,0,0,0.00,0.00,0.00,0.00
2014-05-02 21:10:00,2,39278,0,0.00,2,2,0,2,30369,50000,6585,37442,0,0,0,0,0.00,0.00,0.00,0.00
2014-05-02 21:20:00,2,43689,0,0.00,2,2,0,2,30162,50000,5941,46200,0,0,0,0,0.00,0.00,0.00,0.00
2014-05-02 21:30:00,2,42776,0,0.00,2,2,0,2,28980,50000,7037,44820,0,0,0,0,0.00,0.00,0.00,0.00
2014-05-02 21:40:00,2,40536,0,0.00,2,2,0,2,29045,48976,5912,41011,0,0,0,0,0.00,0.00,0.00,0.00
2014-05-02 21:50:00,2,43476,0,0.00,2,2,0,2,30901,50000,6349,45010,0,0,0,0,0.00,0.00,0.00,0.00
2014-05-02 22:00:00,2,37681,0,0.00,2,2,0,2,30916,43306,4086,37888,0,0,0,0,0.00,0.00,0.00,0.00
2014-05-02 22:10:00,2,39350,0,0.00,2,2,0,2,29933,49057,5349,39998,0,0,0,0,0.00,0.00,0.00,0.00
2014-05-02 22:20:00,2,40178,0,0.00,2,2,0,2,26611,50000,7668,40145,0,0,0,0,0.00,0.00,0.00,0.00
2014-05-02 22:30:00,2,37133,0,0.00,2,2,0,2,30693,46458,4983,36944,0,0,0,0,0.00,0.00,0.00,0.00
2014-05-02 22:40:00,2,38333,0,0.00,2,2,0,2,30515,46239,4178,38022,0,0,0,0,0.00,0.00,0.00,0.00
2014-05-02 22:50:00,2,41127,0,0.00,2,2,0,2,35544,48464,4109,40686,0,0,0,0,0.00,0.00,0.00,0.00
2014-05-02 23:00:00,2,45877,0,0.00,2,2,0,2,36045,50000,4089,46820,0,0,0,0,0.00,0.00,0.00,0.00
2014-05-02 23:10:00,2,40834,0,0.00,2,2,0,2,30129,49758,6572,40954,0,0,0,0,0.00,0.00,0.00,0.00
2014-05-02 23:20:00,2,38357,0,0.00,2,2,0,2,27558,50000,7622,39009,0,0,0,0,0.00,0.00,0.00,0.00
2014-05-02 23:30:00,2,37843,0,0.00,2,2,0,2,28756,48375,7273,35575,0,0,0,0,0.00,0.00,0.00,0.00
2014-05-02 23:40:00,2,40259,0,0.00,2,2,0,2,30692,50000,7226,40208,0,0,0,0,0.00,0.00,0.00,0.00
2014-05-02 23:50:00,2,33484,0,0.00,2,2,0,2,21505,44115,8295,35224,0,0,0,0,0.00,0.00,0.00,0.00
